Year,Month,Day,Hour,Minute,Value (Times are PST for temperature in C)
2012,09,16,00,00,12.90
2012,09,16,00,01,12.80
2012,09,16,00,02,12.70
2012,09,16,00,03,12.50
2012,09,16,00,04,12.40
2012,09,16,00,05,12.20
2012,09,16,00,06,12.20
2012,09,16,00,07,12.10
2012,09,16,00,08,12.10
2012,09,16,00,09,12.10
2012,09,16,00,10,12.10
2012,09,16,00,11,12.10
2012,09,16,00,12,12.20
2012,09,16,00,13,12.30
2012,09,16,00,14,12.30
2012,09,16,00,15,12.30
2012,09,16,00,16,12.30
2012,09,16,00,17,12.30
2012,09,16,00,18,12.20
2012,09,16,00,19,12.20
2012,09,16,00,20,12.10
2012,09,16,00,21,12.10
2012,09,16,00,22,12.10
2012,09,16,00,23,12.10
2012,09,16,00,24,12.10
2012,09,16,00,25,12.20
2012,09,16,00,26,12.20
2012,09,16,00,27,12.20
2012,09,16,00,28,12.20
2012,09,16,00,29,12.20
2012,09,16,00,30,12.10
2012,09,16,00,31,12.10
2012,09,16,00,32,12.10
2012,09,16,00,33,12.10
2012,09,16,00,34,12.00
2012,09,16,00,35,12.00
2012,09,16,00,36,12.00
2012,09,16,00,37,12.00
2012,09,16,00,38,12.00
2012,09,16,00,39,11.90
2012,09,16,00,40,11.90
2012,09,16,00,41,11.80
2012,09,16,00,42,11.80
2012,09,16,00,43,11.80
2012,09,16,00,44,11.70
2012,09,16,00,45,11.60
2012,09,16,00,46,11.60
2012,09,16,00,47,11.50
2012,09,16,00,48,11.50
2012,09,16,00,49,11.50
2012,09,16,00,50,11.50
2012,09,16,00,51,11.60
2012,09,16,00,52,11.60
2012,09,16,00,53,11.60
2012,09,16,00,54,11.60
2012,09,16,00,55,11.60
2012,09,16,00,56,11.60
2012,09,16,00,57,11.60
2012,09,16,00,58,11.60
2012,09,16,00,59,11.70
2012,09,16,01,00,11.70
2012,09,16,01,01,11.80
2012,09,16,01,02,11.90
2012,09,16,01,03,12.10
2012,09,16,01,04,12.20
2012,09,16,01,05,12.30
2012,09,16,01,06,12.40
2012,09,16,01,07,12.50
2012,09,16,01,08,12.60
2012,09,16,01,09,12.60
2012,09,16,01,10,12.60
2012,09,16,01,11,12.60
2012,09,16,01,12,12.60
2012,09,16,01,13,12.50
2012,09,16,01,14,12.50
2012,09,16,01,15,12.50
2012,09,16,01,16,12.60
2012,09,16,01,17,12.60
2012,09,16,01,18,12.60
2012,09,16,01,19,12.60
2012,09,16,01,20,12.60
2012,09,16,01,21,12.60
2012,09,16,01,22,12.60
2012,09,16,01,23,12.50
2012,09,16,01,24,12.50
2012,09,16,01,25,12.40
2012,09,16,01,26,12.40
2012,09,16,01,27,12.50
2012,09,16,01,28,12.60
2012,09,16,01,29,12.60
2012,09,16,01,30,12.70
2012,09,16,01,31,12.70
2012,09,16,01,32,12.70
2012,09,16,01,33,12.80
2012,09,16,01,34,12.80
2012,09,16,01,35,12.90
2012,09,16,01,36,12.90
2012,09,16,01,37,12.90
2012,09,16,01,38,13.00
2012,09,16,01,39,13.00
2012,09,16,01,40,13.10
2012,09,16,01,41,13.10
2012,09,16,01,42,13.20
2012,09,16,01,43,13.20
2012,09,16,01,44,13.20
2012,09,16,01,45,13.20
2012,09,16,01,46,13.10
2012,09,16,01,47,13.10
2012,09,16,01,48,13.10
2012,09,16,01,49,13.10
2012,09,16,01,50,13.10
2012,09,16,01,51,13.10
2012,09,16,01,52,13.10
2012,09,16,01,53,13.10
2012,09,16,01,54,13.20
2012,09,16,01,55,13.20
2012,09,16,01,56,13.20
2012,09,16,01,57,13.30
2012,09,16,01,58,13.30
2012,09,16,01,59,13.30
2012,09,16,02,00,13.30
2012,09,16,02,01,13.30
2012,09,16,02,02,13.40
2012,09,16,02,03,13.30
2012,09,16,02,04,13.40
2012,09,16,02,05,13.30
2012,09,16,02,06,13.30
2012,09,16,02,07,13.30
2012,09,16,02,08,13.30
2012,09,16,02,09,13.30
2012,09,16,02,10,13.30
2012,09,16,02,11,13.30
2012,09,16,02,12,13.20
2012,09,16,02,13,13.20
2012,09,16,02,14,13.20
2012,09,16,02,15,13.20
2012,09,16,02,16,13.30
2012,09,16,02,17,13.30
2012,09,16,02,18,13.30
2012,09,16,02,19,13.30
2012,09,16,02,20,13.20
2012,09,16,02,21,13.20
2012,09,16,02,22,13.20
2012,09,16,02,23,13.20
2012,09,16,02,24,13.20
2012,09,16,02,25,13.20
2012,09,16,02,26,13.20
2012,09,16,02,27,13.10
2012,09,16,02,28,13.10
2012,09,16,02,29,13.10
2012,09,16,02,30,13.10
2012,09,16,02,31,13.10
2012,09,16,02,32,13.10
2012,09,16,02,33,13.00
2012,09,16,02,34,13.00
2012,09,16,02,35,12.90
2012,09,16,02,36,12.90
2012,09,16,02,37,12.90
2012,09,16,02,38,12.90
2012,09,16,02,39,12.90
2012,09,16,02,40,12.80
2012,09,16,02,41,12.80
2012,09,16,02,42,12.80
2012,09,16,02,43,12.80
2012,09,16,02,44,12.80
2012,09,16,02,45,12.90
2012,09,16,02,46,12.90
2012,09,16,02,47,13.00
2012,09,16,02,48,13.00
2012,09,16,02,49,13.10
2012,09,16,02,50,13.10
2012,09,16,02,51,13.20
2012,09,16,02,52,13.20
2012,09,16,02,53,13.20
2012,09,16,02,54,13.20
2012,09,16,02,55,13.20
2012,09,16,02,56,13.20
2012,09,16,02,57,13.20
2012,09,16,02,58,13.20
2012,09,16,02,59,13.20
2012,09,16,03,00,13.20
2012,09,16,03,01,13.20
2012,09,16,03,02,13.20
2012,09,16,03,03,13.20
2012,09,16,03,04,13.10
2012,09,16,03,05,13.10
2012,09,16,03,06,13.10
2012,09,16,03,07,13.10
2012,09,16,03,08,13.10
2012,09,16,03,09,13.00
2012,09,16,03,10,13.00
2012,09,16,03,11,12.90
2012,09,16,03,12,12.90
2012,09,16,03,13,12.80
2012,09,16,03,14,12.80
2012,09,16,03,15,12.80
2012,09,16,03,16,12.70
2012,09,16,03,17,12.70
2012,09,16,03,18,12.70
2012,09,16,03,19,12.60
2012,09,16,03,20,12.50
2012,09,16,03,21,12.50
2012,09,16,03,22,12.40
2012,09,16,03,23,12.30
2012,09,16,03,24,12.30
2012,09,16,03,25,12.20
2012,09,16,03,26,12.00
2012,09,16,03,27,11.90
2012,09,16,03,28,11.90
2012,09,16,03,29,11.90
2012,09,16,03,30,11.90
2012,09,16,03,31,11.90
2012,09,16,03,32,11.90
2012,09,16,03,33,11.90
2012,09,16,03,34,11.90
2012,09,16,03,35,11.90
2012,09,16,03,36,11.90
2012,09,16,03,37,11.80
2012,09,16,03,38,11.80
2012,09,16,03,39,11.80
2012,09,16,03,40,11.80
2012,09,16,03,41,11.80
2012,09,16,03,42,11.80
2012,09,16,03,43,11.80
2012,09,16,03,44,11.70
2012,09,16,03,45,11.70
2012,09,16,03,46,11.70
2012,09,16,03,47,11.70
2012,09,16,03,48,11.60
2012,09,16,03,49,11.60
2012,09,16,03,50,11.60
2012,09,16,03,51,11.60
2012,09,16,03,52,11.60
2012,09,16,03,53,11.60
2012,09,16,03,54,11.50
2012,09,16,03,55,11.50
2012,09,16,03,56,11.50
2012,09,16,03,57,11.40
2012,09,16,03,58,11.40
2012,09,16,03,59,11.40
2012,09,16,04,00,11.30
2012,09,16,04,01,11.30
2012,09,16,04,02,11.20
2012,09,16,04,03,11.20
2012,09,16,04,04,11.10
2012,09,16,04,05,11.00
2012,09,16,04,06,10.90
2012,09,16,04,07,10.90
2012,09,16,04,08,10.80
2012,09,16,04,09,10.80
2012,09,16,04,10,10.80
2012,09,16,04,11,10.70
2012,09,16,04,12,10.70
2012,09,16,04,13,10.60
2012,09,16,04,14,10.60
2012,09,16,04,15,10.60
2012,09,16,04,16,10.60
2012,09,16,04,17,10.60
2012,09,16,04,18,10.70
2012,09,16,04,19,10.80
2012,09,16,04,20,10.90
2012,09,16,04,21,11.00
2012,09,16,04,22,11.10
2012,09,16,04,23,11.20
2012,09,16,04,24,11.30
2012,09,16,04,25,11.40
2012,09,16,04,26,11.50
2012,09,16,04,27,11.60
2012,09,16,04,28,11.60
2012,09,16,04,29,11.70
2012,09,16,04,30,11.70
2012,09,16,04,31,11.70
2012,09,16,04,32,11.70
2012,09,16,04,33,11.80
2012,09,16,04,34,11.80
2012,09,16,04,35,11.80
2012,09,16,04,36,11.90
2012,09,16,04,37,11.90
2012,09,16,04,38,11.90
2012,09,16,04,39,11.90
2012,09,16,04,40,11.90
2012,09,16,04,41,12.00
2012,09,16,04,42,12.00
2012,09,16,04,43,12.00
2012,09,16,04,44,12.00
2012,09,16,04,45,12.00
2012,09,16,04,46,11.90
2012,09,16,04,47,11.90
2012,09,16,04,48,11.80
2012,09,16,04,49,11.80
2012,09,16,04,50,11.70
2012,09,16,04,51,11.70
2012,09,16,04,52,11.70
2012,09,16,04,53,11.70
2012,09,16,04,54,11.70
2012,09,16,04,55,11.80
2012,09,16,04,56,11.80
2012,09,16,04,57,11.80
2012,09,16,04,58,11.80
2012,09,16,04,59,11.80
2012,09,16,05,00,11.70
2012,09,16,05,01,11.70
2012,09,16,05,02,11.70
2012,09,16,05,03,11.80
2012,09,16,05,04,11.80
2012,09,16,05,05,11.80
2012,09,16,05,06,11.70
2012,09,16,05,07,11.70
2012,09,16,05,08,11.70
2012,09,16,05,09,11.70
2012,09,16,05,10,11.70
2012,09,16,05,11,11.70
2012,09,16,05,12,11.70
2012,09,16,05,13,11.70
2012,09,16,05,14,11.70
2012,09,16,05,15,11.70
2012,09,16,05,16,11.70
2012,09,16,05,17,11.80
2012,09,16,05,18,11.80
2012,09,16,05,19,11.80
2012,09,16,05,20,11.80
2012,09,16,05,21,11.90
2012,09,16,05,22,11.90
2012,09,16,05,23,11.90
2012,09,16,05,24,11.90
2012,09,16,05,25,11.90
2012,09,16,05,26,11.90
2012,09,16,05,27,11.90
2012,09,16,05,28,11.80
2012,09,16,05,29,11.80
2012,09,16,05,30,11.80
2012,09,16,05,31,11.80
2012,09,16,05,32,11.70
2012,09,16,05,33,11.70
2012,09,16,05,34,11.70
2012,09,16,05,35,11.70
2012,09,16,05,36,11.70
2012,09,16,05,37,11.70
2012,09,16,05,38,11.70
2012,09,16,05,39,11.70
2012,09,16,05,40,11.80
2012,09,16,05,41,11.80
2012,09,16,05,42,11.80
2012,09,16,05,43,11.80
2012,09,16,05,44,11.80
2012,09,16,05,45,11.80
2012,09,16,05,46,11.80
2012,09,16,05,47,11.90
2012,09,16,05,48,11.90
2012,09,16,05,49,12.00
2012,09,16,05,50,12.00
2012,09,16,05,51,12.00
2012,09,16,05,52,12.00
2012,09,16,05,53,12.00
2012,09,16,05,54,12.00
2012,09,16,05,55,12.00
2012,09,16,05,56,12.00
2012,09,16,05,57,12.00
2012,09,16,05,58,12.00
2012,09,16,05,59,12.10
2012,09,16,06,00,12.10
2012,09,16,06,01,12.10
2012,09,16,06,02,12.10
2012,09,16,06,03,12.00
2012,09,16,06,04,12.10
2012,09,16,06,05,12.10
2012,09,16,06,06,12.10
2012,09,16,06,07,12.10
2012,09,16,06,08,12.10
2012,09,16,06,09,12.10
2012,09,16,06,10,12.10
2012,09,16,06,11,12.10
2012,09,16,06,12,12.10
2012,09,16,06,13,12.10
2012,09,16,06,14,12.00
2012,09,16,06,15,12.00
2012,09,16,06,16,11.90
2012,09,16,06,17,11.90
2012,09,16,06,18,11.90
2012,09,16,06,19,11.90
2012,09,16,06,20,11.80
2012,09,16,06,21,11.70
2012,09,16,06,22,11.70
2012,09,16,06,23,11.70
2012,09,16,06,24,11.70
2012,09,16,06,25,11.70
2012,09,16,06,26,11.70
2012,09,16,06,27,11.70
2012,09,16,06,28,11.70
2012,09,16,06,29,11.70
2012,09,16,06,30,11.80
2012,09,16,06,31,11.80
2012,09,16,06,32,11.80
2012,09,16,06,33,11.80
2012,09,16,06,34,11.80
2012,09,16,06,35,11.80
2012,09,16,06,36,11.70
2012,09,16,06,37,11.70
2012,09,16,06,38,11.70
2012,09,16,06,39,11.70
2012,09,16,06,40,11.70
2012,09,16,06,41,11.70
2012,09,16,06,42,11.70
2012,09,16,06,43,11.70
2012,09,16,06,44,11.60
2012,09,16,06,45,11.60
2012,09,16,06,46,11.60
2012,09,16,06,47,11.60
2012,09,16,06,48,11.60
2012,09,16,06,49,11.60
2012,09,16,06,50,11.60
2012,09,16,06,51,11.60
2012,09,16,06,52,11.60
2012,09,16,06,53,11.70
2012,09,16,06,54,11.70
2012,09,16,06,55,11.70
2012,09,16,06,56,11.80
2012,09,16,06,57,11.80
2012,09,16,06,58,11.80
2012,09,16,06,59,11.80
2012,09,16,07,00,11.90
2012,09,16,07,01,11.90
2012,09,16,07,02,12.00
2012,09,16,07,03,12.00
2012,09,16,07,04,12.00
2012,09,16,07,05,12.10
2012,09,16,07,06,12.00
2012,09,16,07,07,12.00
2012,09,16,07,08,12.00
2012,09,16,07,09,12.10
2012,09,16,07,10,12.10
2012,09,16,07,11,12.10
2012,09,16,07,12,12.10
2012,09,16,07,13,12.10
2012,09,16,07,14,12.20
2012,09,16,07,15,12.20
2012,09,16,07,16,12.20
2012,09,16,07,17,12.20
2012,09,16,07,18,12.20
2012,09,16,07,19,12.30
2012,09,16,07,20,12.30
2012,09,16,07,21,12.30
2012,09,16,07,22,12.30
2012,09,16,07,23,12.30
2012,09,16,07,24,12.30
2012,09,16,07,25,12.30
2012,09,16,07,26,12.30
2012,09,16,07,27,12.40
2012,09,16,07,28,12.40
2012,09,16,07,29,12.40
2012,09,16,07,30,12.40
2012,09,16,07,31,12.40
2012,09,16,07,32,12.50
2012,09,16,07,33,12.50
2012,09,16,07,34,12.50
2012,09,16,07,35,12.50
2012,09,16,07,36,12.50
2012,09,16,07,37,12.60
2012,09,16,07,38,12.60
2012,09,16,07,39,12.60
2012,09,16,07,40,12.60
2012,09,16,07,41,12.70
2012,09,16,07,42,12.70
2012,09,16,07,43,12.70
2012,09,16,07,44,12.70
2012,09,16,07,45,12.70
2012,09,16,07,46,12.80
2012,09,16,07,47,12.80
2012,09,16,07,48,12.80
2012,09,16,07,49,12.80
2012,09,16,07,50,12.90
2012,09,16,07,51,12.90
2012,09,16,07,52,13.00
2012,09,16,07,53,13.00
2012,09,16,07,54,13.10
2012,09,16,07,55,13.10
2012,09,16,07,56,13.20
2012,09,16,07,57,13.20
2012,09,16,07,58,13.20
2012,09,16,07,59,13.30
2012,09,16,08,00,13.30
2012,09,16,08,01,13.30
2012,09,16,08,02,13.40
2012,09,16,08,03,13.40
2012,09,16,08,04,13.50
2012,09,16,08,05,13.50
2012,09,16,08,06,13.60
2012,09,16,08,07,13.60
2012,09,16,08,08,13.60
2012,09,16,08,09,13.70
2012,09,16,08,10,13.70
2012,09,16,08,11,13.70
2012,09,16,08,12,13.70
2012,09,16,08,13,13.80
2012,09,16,08,14,13.80
2012,09,16,08,15,13.80
2012,09,16,08,16,13.90
2012,09,16,08,17,13.90
2012,09,16,08,18,13.90
2012,09,16,08,19,14.00
2012,09,16,08,20,14.00
2012,09,16,08,21,14.10
2012,09,16,08,22,14.10
2012,09,16,08,23,14.10
2012,09,16,08,24,14.10
2012,09,16,08,25,14.10
2012,09,16,08,26,14.20
2012,09,16,08,27,14.20
2012,09,16,08,28,14.20
2012,09,16,08,29,14.20
2012,09,16,08,30,14.20
2012,09,16,08,31,14.20
2012,09,16,08,32,14.20
2012,09,16,08,33,14.20
2012,09,16,08,34,14.20
2012,09,16,08,35,14.30
2012,09,16,08,36,14.30
2012,09,16,08,37,14.30
2012,09,16,08,38,14.30
2012,09,16,08,39,14.30
2012,09,16,08,40,14.30
2012,09,16,08,41,14.30
2012,09,16,08,42,14.40
2012,09,16,08,43,14.40
2012,09,16,08,44,14.40
2012,09,16,08,45,14.40
2012,09,16,08,46,14.40
2012,09,16,08,47,14.40
2012,09,16,08,48,14.40
2012,09,16,08,49,14.40
2012,09,16,08,50,14.50
2012,09,16,08,51,14.50
2012,09,16,08,52,14.50
2012,09,16,08,53,14.60
2012,09,16,08,54,14.60
2012,09,16,08,55,14.60
2012,09,16,08,56,14.70
2012,09,16,08,57,14.70
2012,09,16,08,58,14.70
2012,09,16,08,59,14.70
2012,09,16,09,00,14.70
2012,09,16,09,01,14.70
2012,09,16,09,02,14.70
2012,09,16,09,03,14.60
2012,09,16,09,04,14.60
2012,09,16,09,05,14.60
2012,09,16,09,06,14.60
2012,09,16,09,07,14.60
2012,09,16,09,08,14.60
2012,09,16,09,09,14.60
2012,09,16,09,10,14.60
2012,09,16,09,11,14.70
2012,09,16,09,12,14.70
2012,09,16,09,13,14.70
2012,09,16,09,14,14.80
2012,09,16,09,15,14.80
2012,09,16,09,16,14.80
2012,09,16,09,17,14.90
2012,09,16,09,18,14.90
2012,09,16,09,19,15.00
2012,09,16,09,20,15.00
2012,09,16,09,21,15.10
2012,09,16,09,22,15.10
2012,09,16,09,23,15.20
2012,09,16,09,24,15.20
2012,09,16,09,25,15.30
2012,09,16,09,26,15.30
2012,09,16,09,27,15.30
2012,09,16,09,28,15.30
2012,09,16,09,29,15.40
2012,09,16,09,30,15.40
2012,09,16,09,31,15.50
2012,09,16,09,32,15.50
2012,09,16,09,33,15.60
2012,09,16,09,34,15.60
2012,09,16,09,35,15.60
2012,09,16,09,36,15.70
2012,09,16,09,37,15.70
2012,09,16,09,38,15.80
2012,09,16,09,39,15.80
2012,09,16,09,40,15.80
2012,09,16,09,41,15.90
2012,09,16,09,42,15.90
2012,09,16,09,43,15.90
2012,09,16,09,44,16.00
2012,09,16,09,45,16.00
2012,09,16,09,46,16.10
2012,09,16,09,47,16.10
2012,09,16,09,48,16.20
2012,09,16,09,49,16.20
2012,09,16,09,50,16.30
2012,09,16,09,51,16.40
2012,09,16,09,52,16.40
2012,09,16,09,53,16.50
2012,09,16,09,54,16.50
2012,09,16,09,55,16.60
2012,09,16,09,56,16.60
2012,09,16,09,57,16.50
2012,09,16,09,58,16.50
2012,09,16,09,59,16.50
2012,09,16,10,00,16.50
2012,09,16,10,01,16.50
2012,09,16,10,02,16.50
2012,09,16,10,03,16.60
2012,09,16,10,04,16.60
2012,09,16,10,05,16.60
2012,09,16,10,06,16.70
2012,09,16,10,07,16.70
2012,09,16,10,08,16.70
2012,09,16,10,09,16.70
2012,09,16,10,10,16.60
2012,09,16,10,11,16.60
2012,09,16,10,12,16.60
2012,09,16,10,13,16.60
2012,09,16,10,14,16.60
2012,09,16,10,15,16.60
2012,09,16,10,16,16.60
2012,09,16,10,17,16.60
2012,09,16,10,18,16.60
2012,09,16,10,19,16.70
2012,09,16,10,20,16.70
2012,09,16,10,21,16.80
2012,09,16,10,22,16.80
2012,09,16,10,23,16.90
2012,09,16,10,24,16.90
2012,09,16,10,25,17.00
2012,09,16,10,26,17.10
2012,09,16,10,27,17.20
2012,09,16,10,28,17.20
2012,09,16,10,29,17.30
2012,09,16,10,30,17.30
2012,09,16,10,31,17.30
2012,09,16,10,32,17.40
2012,09,16,10,33,17.30
2012,09,16,10,34,17.30
2012,09,16,10,35,17.30
2012,09,16,10,36,17.20
2012,09,16,10,37,17.20
2012,09,16,10,38,17.20
2012,09,16,10,39,17.20
2012,09,16,10,40,17.20
2012,09,16,10,41,17.20
2012,09,16,10,42,17.20
2012,09,16,10,43,17.20
2012,09,16,10,44,17.30
2012,09,16,10,45,17.30
2012,09,16,10,46,17.30
2012,09,16,10,47,17.30
2012,09,16,10,48,17.30
2012,09,16,10,49,17.30
2012,09,16,10,50,17.30
2012,09,16,10,51,17.40
2012,09,16,10,52,17.40
2012,09,16,10,53,17.50
2012,09,16,10,54,17.50
2012,09,16,10,55,17.60
2012,09,16,10,56,17.60
2012,09,16,10,57,17.70
2012,09,16,10,58,17.70
2012,09,16,10,59,17.70
2012,09,16,11,00,17.80
2012,09,16,11,01,17.80
2012,09,16,11,02,17.90
2012,09,16,11,03,17.90
2012,09,16,11,04,18.00
2012,09,16,11,05,18.10
2012,09,16,11,06,18.10
2012,09,16,11,07,18.10
2012,09,16,11,08,18.20
2012,09,16,11,09,18.20
2012,09,16,11,10,18.20
2012,09,16,11,11,18.20
2012,09,16,11,12,18.20
2012,09,16,11,13,18.20
2012,09,16,11,14,18.10
2012,09,16,11,15,18.10
2012,09,16,11,16,18.10
2012,09,16,11,17,18.20
2012,09,16,11,18,18.20
2012,09,16,11,19,18.20
2012,09,16,11,20,18.30
2012,09,16,11,21,18.20
2012,09,16,11,22,18.20
2012,09,16,11,23,18.20
2012,09,16,11,24,18.20
2012,09,16,11,25,18.20
2012,09,16,11,26,18.20
2012,09,16,11,27,18.20
2012,09,16,11,28,18.30
2012,09,16,11,29,18.30
2012,09,16,11,30,18.40
2012,09,16,11,31,18.50
2012,09,16,11,32,18.50
2012,09,16,11,33,18.50
2012,09,16,11,34,18.50
2012,09,16,11,35,18.60
2012,09,16,11,36,18.60
2012,09,16,11,37,18.60
2012,09,16,11,38,18.70
2012,09,16,11,39,18.70
2012,09,16,11,40,18.70
2012,09,16,11,41,18.70
2012,09,16,11,42,18.70
2012,09,16,11,43,18.70
2012,09,16,11,44,18.80
2012,09,16,11,45,18.80
2012,09,16,11,46,18.80
2012,09,16,11,47,18.80
2012,09,16,11,48,18.80
2012,09,16,11,49,18.80
2012,09,16,11,50,18.80
2012,09,16,11,51,18.80
2012,09,16,11,52,18.80
2012,09,16,11,53,18.80
2012,09,16,11,54,18.80
2012,09,16,11,55,18.80
2012,09,16,11,56,18.80
2012,09,16,11,57,18.80
2012,09,16,11,58,18.80
2012,09,16,11,59,18.80
2012,09,16,12,00,18.80
2012,09,16,12,01,18.80
2012,09,16,12,02,18.80
2012,09,16,12,03,18.80
2012,09,16,12,04,18.80
2012,09,16,12,05,18.80
2012,09,16,12,06,18.80
2012,09,16,12,07,18.80
2012,09,16,12,08,18.80
2012,09,16,12,09,18.80
2012,09,16,12,10,18.80
2012,09,16,12,11,18.90
2012,09,16,12,12,18.90
2012,09,16,12,13,19.00
2012,09,16,12,14,19.00
2012,09,16,12,15,19.10
2012,09,16,12,16,19.10
2012,09,16,12,17,19.10
2012,09,16,12,18,19.10
2012,09,16,12,19,19.00
2012,09,16,12,20,18.90
2012,09,16,12,21,18.90
2012,09,16,12,22,18.80
2012,09,16,12,23,18.80
2012,09,16,12,24,18.80
2012,09,16,12,25,18.80
2012,09,16,12,26,18.80
2012,09,16,12,27,18.80
2012,09,16,12,28,18.80
2012,09,16,12,29,18.80
2012,09,16,12,30,18.80
2012,09,16,12,31,18.90
2012,09,16,12,32,18.90
2012,09,16,12,33,19.00
2012,09,16,12,34,19.00
2012,09,16,12,35,19.00
2012,09,16,12,36,19.10
2012,09,16,12,37,19.20
2012,09,16,12,38,19.30
2012,09,16,12,39,19.30
2012,09,16,12,40,19.40
2012,09,16,12,41,19.40
2012,09,16,12,42,19.40
2012,09,16,12,43,19.50
2012,09,16,12,44,19.50
2012,09,16,12,45,19.60
2012,09,16,12,46,19.60
2012,09,16,12,47,19.60
2012,09,16,12,48,19.60
2012,09,16,12,49,19.60
2012,09,16,12,50,19.60
2012,09,16,12,51,19.60
2012,09,16,12,52,19.70
2012,09,16,12,53,19.70
2012,09,16,12,54,19.70
2012,09,16,12,55,19.80
2012,09,16,12,56,19.90
2012,09,16,12,57,19.90
2012,09,16,12,58,20.00
2012,09,16,12,59,20.00
2012,09,16,13,00,20.10
2012,09,16,13,01,20.10
2012,09,16,13,02,20.10
2012,09,16,13,03,20.20
2012,09,16,13,04,20.20
2012,09,16,13,05,20.30
2012,09,16,13,06,20.30
2012,09,16,13,07,20.30
2012,09,16,13,08,20.30
2012,09,16,13,09,20.30
2012,09,16,13,10,20.30
2012,09,16,13,11,20.40
2012,09,16,13,12,20.40
2012,09,16,13,13,20.40
2012,09,16,13,14,20.50
2012,09,16,13,15,20.60
2012,09,16,13,16,20.60
2012,09,16,13,17,20.70
2012,09,16,13,18,20.70
2012,09,16,13,19,20.70
2012,09,16,13,20,20.70
2012,09,16,13,21,20.70
2012,09,16,13,22,20.80
2012,09,16,13,23,20.70
2012,09,16,13,24,20.70
2012,09,16,13,25,20.70
2012,09,16,13,26,20.70
2012,09,16,13,27,20.70
2012,09,16,13,28,20.70
2012,09,16,13,29,20.80
2012,09,16,13,30,20.80
2012,09,16,13,31,20.80
2012,09,16,13,32,20.80
2012,09,16,13,33,20.80
2012,09,16,13,34,20.80
2012,09,16,13,35,20.80
2012,09,16,13,36,20.80
2012,09,16,13,37,20.80
2012,09,16,13,38,20.90
2012,09,16,13,39,20.90
2012,09,16,13,40,20.90
2012,09,16,13,41,20.90
2012,09,16,13,42,20.90
2012,09,16,13,43,20.90
2012,09,16,13,44,20.90
2012,09,16,13,45,21.00
2012,09,16,13,46,21.00
2012,09,16,13,47,21.10
2012,09,16,13,48,21.20
2012,09,16,13,49,21.20
2012,09,16,13,50,21.20
2012,09,16,13,51,21.10
2012,09,16,13,52,21.00
2012,09,16,13,53,21.00
2012,09,16,13,54,21.00
2012,09,16,13,55,21.10
2012,09,16,13,56,21.10
2012,09,16,13,57,21.20
2012,09,16,13,58,21.20
2012,09,16,13,59,21.30
2012,09,16,14,00,21.30
2012,09,16,14,01,21.40
2012,09,16,14,02,21.40
2012,09,16,14,03,21.50
2012,09,16,14,04,21.50
2012,09,16,14,05,21.50
2012,09,16,14,06,21.50
2012,09,16,14,07,21.50
2012,09,16,14,08,21.50
2012,09,16,14,09,21.50
2012,09,16,14,10,21.40
2012,09,16,14,11,21.40
2012,09,16,14,12,21.30
2012,09,16,14,13,21.30
2012,09,16,14,14,21.30
2012,09,16,14,15,21.40
2012,09,16,14,16,21.40
2012,09,16,14,17,21.50
2012,09,16,14,18,21.60
2012,09,16,14,19,21.60
2012,09,16,14,20,21.70
2012,09,16,14,21,21.80
2012,09,16,14,22,21.90
2012,09,16,14,23,22.00
2012,09,16,14,24,22.00
2012,09,16,14,25,22.10
2012,09,16,14,26,22.10
2012,09,16,14,27,22.10
2012,09,16,14,28,22.10
2012,09,16,14,29,22.20
2012,09,16,14,30,22.20
2012,09,16,14,31,22.20
2012,09,16,14,32,22.30
2012,09,16,14,33,22.30
2012,09,16,14,34,22.30
2012,09,16,14,35,22.20
2012,09,16,14,36,22.10
2012,09,16,14,37,22.10
2012,09,16,14,38,22.10
2012,09,16,14,39,22.20
2012,09,16,14,40,22.30
2012,09,16,14,41,22.30
2012,09,16,14,42,22.40
2012,09,16,14,43,22.40
2012,09,16,14,44,22.50
2012,09,16,14,45,22.50
2012,09,16,14,46,22.60
2012,09,16,14,47,22.60
2012,09,16,14,48,22.60
2012,09,16,14,49,22.70
2012,09,16,14,50,22.70
2012,09,16,14,51,22.80
2012,09,16,14,52,22.80
2012,09,16,14,53,22.80
2012,09,16,14,54,22.80
2012,09,16,14,55,22.80
2012,09,16,14,56,22.80
2012,09,16,14,57,22.90
2012,09,16,14,58,22.80
2012,09,16,14,59,22.80
2012,09,16,15,00,22.90
2012,09,16,15,01,22.90
2012,09,16,15,02,23.00
2012,09,16,15,03,23.10
2012,09,16,15,04,23.10
2012,09,16,15,05,23.10
2012,09,16,15,06,23.10
2012,09,16,15,07,23.00
2012,09,16,15,08,23.00
2012,09,16,15,09,23.00
2012,09,16,15,10,23.10
2012,09,16,15,11,23.10
2012,09,16,15,12,23.10
2012,09,16,15,13,23.10
2012,09,16,15,14,23.10
2012,09,16,15,15,23.20
2012,09,16,15,16,23.20
2012,09,16,15,17,23.20
2012,09,16,15,18,23.20
2012,09,16,15,19,23.20
2012,09,16,15,20,23.20
2012,09,16,15,21,23.20
2012,09,16,15,22,23.20
2012,09,16,15,23,23.20
2012,09,16,15,24,23.20
2012,09,16,15,25,23.20
2012,09,16,15,26,23.20
2012,09,16,15,27,23.20
2012,09,16,15,28,23.20
2012,09,16,15,29,23.10
2012,09,16,15,30,23.10
2012,09,16,15,31,23.10
2012,09,16,15,32,23.20
2012,09,16,15,33,23.20
2012,09,16,15,34,23.20
2012,09,16,15,35,23.20
2012,09,16,15,36,23.10
2012,09,16,15,37,23.10
2012,09,16,15,38,23.20
2012,09,16,15,39,23.20
2012,09,16,15,40,23.20
2012,09,16,15,41,23.30
2012,09,16,15,42,23.40
2012,09,16,15,43,23.40
2012,09,16,15,44,23.50
2012,09,16,15,45,23.50
2012,09,16,15,46,23.60
2012,09,16,15,47,23.60
2012,09,16,15,48,23.50
2012,09,16,15,49,23.50
2012,09,16,15,50,23.50
2012,09,16,15,51,23.50
2012,09,16,15,52,23.40
2012,09,16,15,53,23.40
2012,09,16,15,54,23.50
2012,09,16,15,55,23.50
2012,09,16,15,56,23.60
2012,09,16,15,57,23.60
2012,09,16,15,58,23.60
2012,09,16,15,59,23.60
2012,09,16,16,00,23.60
2012,09,16,16,01,23.60
2012,09,16,16,02,23.50
2012,09,16,16,03,23.50
2012,09,16,16,04,23.50
2012,09,16,16,05,23.50
2012,09,16,16,06,23.50
2012,09,16,16,07,23.60
2012,09,16,16,08,23.60
2012,09,16,16,09,23.70
2012,09,16,16,10,23.70
2012,09,16,16,11,23.80
2012,09,16,16,12,23.80
2012,09,16,16,13,23.90
2012,09,16,16,14,23.90
2012,09,16,16,15,23.90
2012,09,16,16,16,23.90
2012,09,16,16,17,23.90
2012,09,16,16,18,23.90
2012,09,16,16,19,23.90
2012,09,16,16,20,23.80
2012,09,16,16,21,23.80
2012,09,16,16,22,23.80
2012,09,16,16,23,23.90
2012,09,16,16,24,23.90
2012,09,16,16,25,23.90
2012,09,16,16,26,23.90
2012,09,16,16,27,23.90
2012,09,16,16,28,23.90
2012,09,16,16,29,23.90
2012,09,16,16,30,23.90
2012,09,16,16,31,23.90
2012,09,16,16,32,23.80
2012,09,16,16,33,23.80
2012,09,16,16,34,23.80
2012,09,16,16,35,23.90
2012,09,16,16,36,23.90
2012,09,16,16,37,23.90
2012,09,16,16,38,23.90
2012,09,16,16,39,24.00
2012,09,16,16,40,24.00
2012,09,16,16,41,24.00
2012,09,16,16,42,24.00
2012,09,16,16,43,24.00
2012,09,16,16,44,24.00
2012,09,16,16,45,24.00
2012,09,16,16,46,24.00
2012,09,16,16,47,24.10
2012,09,16,16,48,24.10
2012,09,16,16,49,24.10
2012,09,16,16,50,24.20
2012,09,16,16,51,24.20
2012,09,16,16,52,24.20
2012,09,16,16,53,24.20
2012,09,16,16,54,24.10
2012,09,16,16,55,24.10
2012,09,16,16,56,24.00
2012,09,16,16,57,23.90
2012,09,16,16,58,23.90
2012,09,16,16,59,23.90
2012,09,16,17,00,23.90
2012,09,16,17,01,23.90
2012,09,16,17,02,23.90
2012,09,16,17,03,23.90
2012,09,16,17,04,23.90
2012,09,16,17,05,23.90
2012,09,16,17,06,24.00
2012,09,16,17,07,24.00
2012,09,16,17,08,24.10
2012,09,16,17,09,24.10
2012,09,16,17,10,24.20
2012,09,16,17,11,24.20
2012,09,16,17,12,24.20
2012,09,16,17,13,24.20
2012,09,16,17,14,24.20
2012,09,16,17,15,24.20
2012,09,16,17,16,24.20
2012,09,16,17,17,24.10
2012,09,16,17,18,24.10
2012,09,16,17,19,24.10